Home > Weather > Yakutsk > Past weeks

Flag for Russia Past Weather in Yakutsk, Russia — Yesterday and Last 2 Weeks

Now
64 °F

Clear.


Feels Like: 64 °F
Forecast: 62 / 79 °F
Wind: 3 mph from Northwest

Location: Jakutsk

Current Time: Jul 31, 2016 at 1:54:22 AM

Latest Report: Jul 31, 2016 at 1:30 AM


Visibility: 10 mi

Pressure: 29.77 "Hg

Humidity: 94%

Dew Point: 63 °F

Location of YakutskLocation

Past Weather in Yakutsk — Graph

°F

Yakutsk Temperature Yesterday

Maximum temperature yesterday: 79 °F (at 2:00 PM)
Minimum temperature yesterday: 57 °F (at 3:00 AM)
Average temperature yesterday: 69 °F

High & Low Weather Summary for the Past Weeks

 TemperatureHumidityPressure
High81 °F (Jul 20, 12:30 PM)100% (Jul 19, 10:00 PM)29.86 "Hg (Jul 19, 10:00 PM)
Low48 °F (Jul 24, 4:00 AM)23% (Jul 20, 2:00 PM)29.59 "Hg (Jul 19, 7:00 PM)
Average65 °F74%29.71 "Hg
* Reported Jul 16 12:00 AM — Jul 31 12:30 AM, Yakutsk, Weather by CustomWeather, © 2016

Note: Actual official high and low records may vary slightly from our data, if they occured in-between our weather recording intervals... More about our weather records

Advertising

Yakutsk Weather History for the Previous 24 Hours

Scroll right to see more
 ConditionsComfort  
Time TempWeatherWind HumidityBarometerVisibility
12:30 AM
Sun, Jul 31
64 °FClear.3 mph94%29.77 "Hg10 mi
12:00 AM64 °FClear.3 mph94%29.74 "Hg10 mi
11:30 PM
Sat, Jul 30
66 °FClear.6 mph88%29.74 "Hg10 mi
11:00 PM66 °FClear.3 mph94%29.74 "Hg10 mi
10:30 PM66 °FClear.1 mph94%29.74 "Hg10 mi
10:00 PM68 °FClear.1 mph88%29.71 "Hg10 mi
9:30 PM68 °FClear.No wind88%29.71 "Hg10 mi
9:00 PM68 °FClear.3 mph94%29.71 "Hg10 mi
8:30 PM70 °FPassing clouds.3 mph88%29.71 "HgN/A
8:00 PM70 °FScattered clouds.3 mph88%29.68 "HgN/A
7:30 PM68 °FSprinkles. Scattered clouds.1 mph94%29.68 "HgN/A
7:00 PM68 °FSprinkles. Scattered clouds.1 mph94%29.68 "HgN/A
6:30 PM70 °FScattered clouds.3 mph83%29.68 "HgN/A
6:00 PM70 °FThunderstorms. Scattered clouds.6 mph88%29.68 "HgN/A
5:30 PM75 °FThunderstorms. Scattered clouds.1 mph61%29.65 "HgN/A
5:00 PM77 °FScattered clouds.6 mph54%29.62 "HgN/A
4:30 PM79 °FScattered clouds.6 mph54%29.62 "HgN/A
4:00 PM79 °FPassing clouds.3 mph54%29.65 "HgN/A
3:30 PM77 °FPassing clouds.3 mph54%29.65 "HgN/A
3:00 PM77 °FPassing clouds.6 mph54%29.62 "HgN/A
2:30 PM77 °FPassing clouds.6 mph54%29.65 "HgN/A
2:00 PM79 °FSunny.3 mph54%29.65 "Hg10 mi
1:30 PM77 °FPassing clouds.3 mph57%29.65 "HgN/A
1:00 PM77 °FPassing clouds.3 mph61%29.65 "HgN/A
12:30 PM75 °FSunny.3 mph61%29.65 "Hg10 mi
12:00 PM75 °FSunny.6 mph61%29.68 "Hg10 mi
11:30 AM75 °FSunny.6 mph61%29.65 "Hg10 mi
11:00 AM75 °FPassing clouds.3 mph61%29.65 "HgN/A
10:30 AM75 °FSunny.6 mph61%29.65 "Hg10 mi
10:00 AM73 °FPassing clouds.3 mph65%29.68 "HgN/A
9:30 AM72 °FSunny.3 mph69%29.68 "Hg10 mi
9:00 AM72 °FSunny.3 mph69%29.68 "Hg10 mi
8:30 AM68 °FSunny.3 mph78%29.68 "Hg10 mi
8:00 AM68 °FSunny.1 mph78%29.68 "Hg10 mi
7:30 AM66 °FPassing clouds.No wind83%29.68 "HgN/A
7:00 AM64 °FPassing clouds.1 mph88%29.68 "HgN/A
6:30 AM64 °FPassing clouds.1 mph83%29.68 "HgN/A
6:00 AM66 °FSunny.1 mph83%29.68 "Hg10 mi
5:30 AM64 °FScattered clouds.1 mph88%29.68 "HgN/A
5:00 AM63 °FScattered clouds.No wind94%29.68 "HgN/A
4:30 AM61 °FScattered clouds.1 mph94%29.68 "HgN/A
4:00 AM59 °FScattered clouds.No wind100%29.68 "HgN/A
3:30 AM59 °FSunny.No wind100%29.68 "Hg10 mi
3:00 AM57 °FSunny.1 mph100%29.68 "Hg10 mi
2:30 AM59 °FClear.No wind94%29.68 "Hg10 mi
2:00 AM59 °FClear.No wind94%29.68 "Hg10 mi
1:30 AM61 °FClear.1 mph94%29.68 "Hg10 mi
1:00 AM63 °FClear.1 mph94%29.68 "Hg10 mi
Weather by CustomWeather, © 2016

See weather overviewHow to use our weather pages